,,,PA_Meas_PMT16A,,PR_Meas_QMR101_102,,RH_Meas_QMH101,,SR_Meas_QMS101,,TA_Meas_QMH101,,GenWind,,GenWind,
date,time,status,PA,status,PR,status,RH,status,SR,status,TA,status,DirAvg,status,SpdAvg,
2011-10-28, 00:00:04,VALID,999.61,VALID,0,VALID,92.326,VALID,0,VALID,24.15,VALID,36,VALID,0.372656,
2011-10-28, 00:01:04,VALID,999.614,VALID,0,VALID,92.3108,VALID,0,VALID,24.1305,VALID,36,VALID,0.766016,
2011-10-28, 00:02:04,VALID,999.65,VALID,0,VALID,92.2803,VALID,0,VALID,24.1305,VALID,72,VALID,1.03906,
2011-10-28, 00:03:04,VALID,999.666,VALID,0.5,VALID,92.2497,VALID,0,VALID,24.15,VALID,80,VALID,1.2043,
2011-10-28, 00:04:04,VALID,999.662,VALID,0,VALID,92.265,VALID,0,VALID,24.15,VALID,94,VALID,0.993359,
2011-10-28, 00:05:04,VALID,999.67,VALID,0,VALID,92.2192,VALID,0,VALID,24.15,VALID,111,VALID,1.02891,
2011-10-28, 00:06:04,VALID,999.655,VALID,0,VALID,92.1811,VALID,0,VALID,24.1305,VALID,120,VALID,0.735547,
2011-10-28, 00:07:04,VALID,999.651,VALID,0,VALID,92.1658,VALID,0,VALID,24.0897,VALID,123,VALID,0.753906,
2011-10-28, 00:08:04,VALID,999.618,VALID,0,VALID,92.2345,VALID,0,VALID,24.111,VALID,125,VALID,0.674609,
2011-10-28, 00:09:04,VALID,999.606,VALID,0,VALID,92.2955,VALID,0,VALID,24.111,VALID,136,VALID,0.926953,
2011-10-28, 00:10:04,VALID,999.611,VALID,0,VALID,92.3413,VALID,0,VALID,24.0897,VALID,150,VALID,0.898047,
2011-10-28, 00:11:04,VALID,999.557,VALID,0,VALID,92.4023,VALID,0,VALID,24.111,VALID,150,VALID,0.628516,
2011-10-28, 00:12:04,VALID,999.504,VALID,0,VALID,92.4557,VALID,0,VALID,24.1305,VALID,150,VALID,0.559766,
2011-10-28, 00:13:04,VALID,999.522,VALID,0,VALID,92.4481,VALID,0,VALID,24.15,VALID,150,VALID,0.628906,
2011-10-28, 00:14:04,VALID,999.495,VALID,0,VALID,92.4405,VALID,0,VALID,24.15,VALID,150,VALID,0.458594,
2011-10-28, 00:15:04,VALID,999.485,VALID,0,VALID,92.4252,VALID,0,VALID,24.1696,VALID,150,VALID,0.0929687,
2011-10-28, 00:16:04,VALID,999.499,VALID,0,VALID,92.3794,VALID,0,VALID,24.1696,VALID,150,VALID,0.201953,
2011-10-28, 00:17:04,VALID,999.479,VALID,0,VALID,92.3871,VALID,0,VALID,24.1287,VALID,150,VALID,0.125391,
2011-10-28, 00:18:04,VALID,999.459,VALID,0,VALID,92.4023,VALID,0,VALID,24.1482,VALID,150,VALID,0,
2011-10-28, 00:19:04,VALID,999.455,VALID,0,VALID,92.4023,VALID,0,VALID,24.15,VALID,150,VALID,0.00195313,
2011-10-28, 00:20:04,VALID,999.439,VALID,0,VALID,92.3489,VALID,0,VALID,24.15,VALID,133,VALID,0.828516,
2011-10-28, 00:21:04,VALID,999.436,VALID,0,VALID,92.2726,VALID,0,VALID,24.1482,VALID,133,VALID,0.775781,
2011-10-28, 00:22:04,VALID,999.459,VALID,0,VALID,92.2345,VALID,0,VALID,24.1891,VALID,133,VALID,0.471094,
2011-10-28, 00:23:04,VALID,999.469,VALID,0,VALID,92.2116,VALID,0,VALID,24.1677,VALID,133,VALID,0.366797,
2011-10-28, 00:24:04,VALID,999.469,VALID,0,VALID,92.1811,VALID,0,VALID,24.1891,VALID,133,VALID,0.31875,
2011-10-28, 00:25:04,VALID,999.447,VALID,0,VALID,92.1124,VALID,0,VALID,24.1891,VALID,133,VALID,0.500391,
2011-10-28, 00:26:04,VALID,999.424,VALID,0,VALID,91.9369,VALID,0,VALID,24.1891,VALID,133,VALID,0.551953,
2011-10-28, 00:27:04,VALID,999.432,VALID,0,VALID,91.7157,VALID,0,VALID,24.1482,VALID,133,VALID,0.169922,
2011-10-28, 00:28:04,VALID,999.429,VALID,0,VALID,91.6546,VALID,0,VALID,24.1891,VALID,133,VALID,0,
2011-10-28, 00:29:04,VALID,999.437,VALID,0,VALID,91.6699,VALID,0,VALID,24.1696,VALID,133,VALID,0,
2011-10-28, 00:30:04,VALID,999.432,VALID,0,VALID,91.6928,VALID,0,VALID,24.1305,VALID,133,VALID,0,
2011-10-28, 00:31:04,VALID,999.44,VALID,0,VALID,91.7996,VALID,0,VALID,24.1305,VALID,133,VALID,0,
2011-10-28, 00:32:04,VALID,999.442,VALID,0,VALID,91.9827,VALID,0,VALID,24.1092,VALID,133,VALID,0.361719,
2011-10-28, 00:33:04,VALID,999.46,VALID,0.5,VALID,92.1277,VALID,0,VALID,24.111,VALID,133,VALID,0.321875,
2011-10-28, 00:34:04,VALID,999.418,VALID,0,VALID,92.2345,VALID,0,VALID,24.111,VALID,133,VALID,0.249609,
2011-10-28, 00:35:04,VALID,999.449,VALID,0,VALID,92.3184,VALID,0,VALID,24.0915,VALID,133,VALID,0.444531,
2011-10-28, 00:36:04,VALID,999.424,VALID,0,VALID,92.3489,VALID,0,VALID,24.0506,VALID,131,VALID,0.9625,
2011-10-28, 00:37:04,VALID,999.412,VALID,0,VALID,92.3337,VALID,0,VALID,24.0915,VALID,131,VALID,0.799219,
2011-10-28, 00:38:04,VALID,999.366,VALID,0,VALID,92.2955,VALID,0,VALID,24.111,VALID,131,VALID,1.02773,
2011-10-28, 00:39:04,VALID,999.336,VALID,0,VALID,92.2268,VALID,0,VALID,24.111,VALID,132,VALID,1.18984,
2011-10-28, 00:40:04,VALID,999.279,VALID,0,VALID,92.1353,VALID,0,VALID,24.1305,VALID,153,VALID,1.475,
2011-10-28, 00:41:04,VALID,999.269,VALID,0,VALID,92.0437,VALID,0,VALID,24.1696,VALID,143,VALID,1.35156,
2011-10-28, 00:42:04,VALID,999.263,VALID,0,VALID,91.9217,VALID,0,VALID,24.2086,VALID,146,VALID,1.4668,
2011-10-28, 00:43:04,VALID,999.256,VALID,0,VALID,91.792,VALID,0,VALID,24.2281,VALID,136,VALID,1.1875,
2011-10-28, 00:44:04,VALID,999.254,VALID,0,VALID,91.6851,VALID,0,VALID,24.2476,VALID,136,VALID,1.19648,
2011-10-28, 00:45:04,VALID,999.311,VALID,0,VALID,91.6317,VALID,0,VALID,24.2476,VALID,131,VALID,0.897656,
2011-10-28, 00:46:04,VALID,999.339,VALID,0,VALID,91.6012,VALID,0,VALID,24.2671,VALID,112,VALID,0.787891,
2011-10-28, 00:47:04,VALID,999.345,VALID,0,VALID,91.5783,VALID,0,VALID,24.2476,VALID,108,VALID,0.961719,
2011-10-28, 00:48:04,VALID,999.364,VALID,0,VALID,91.4868,VALID,0,VALID,24.2067,VALID,108,VALID,1.49492,
2011-10-28, 00:49:04,VALID,999.349,VALID,0,VALID,91.4257,VALID,0,VALID,24.269,VALID,95,VALID,1.02266,
2011-10-28, 00:50:04,VALID,999.338,VALID,0,VALID,91.2884,VALID,0,VALID,24.2281,VALID,96,VALID,1.23906,
2011-10-28, 00:51:04,VALID,999.341,VALID,0,VALID,91.1968,VALID,0,VALID,24.2281,VALID,89,VALID,0.842578,
2011-10-28, 00:52:04,VALID,999.297,VALID,0,VALID,91.2503,VALID,0,VALID,24.2281,VALID,89,VALID,1.1832,
2011-10-28, 00:53:04,VALID,999.267,VALID,0,VALID,91.3342,VALID,0,VALID,24.2281,VALID,126,VALID,0.910156,
2011-10-28, 00:54:04,VALID,999.259,VALID,0,VALID,91.3876,VALID,0,VALID,24.2476,VALID,126,VALID,0.969922,
2011-10-28, 00:55:04,VALID,999.271,VALID,0,VALID,91.3723,VALID,0,VALID,24.2281,VALID,98,VALID,1.1668,
2011-10-28, 00:56:04,VALID,999.292,VALID,0,VALID,91.3494,VALID,0,VALID,24.2281,VALID,103,VALID,1.67109,
2011-10-28, 00:57:04,VALID,999.273,VALID,0,VALID,91.1816,VALID,0,VALID,24.2086,VALID,116,VALID,1.71484,
2011-10-28, 00:58:04,VALID,999.249,VALID,0,VALID,91.0061,VALID,0,VALID,24.2086,VALID,114,VALID,2.06602,
2011-10-28, 00:59:04,VALID,999.21,VALID,0,VALID,90.9527,VALID,0,VALID,24.2086,VALID,112,VALID,1.45742,
2011-10-28, 01:00:04,VALID,999.188,VALID,0,VALID,91.0214,VALID,0,VALID,24.2281,VALID,109,VALID,0.571875,
2011-10-28, 01:01:04,VALID,999.104,VALID,0,VALID,90.823,VALID,0,VALID,24.1891,VALID,129,VALID,1.11094,
2011-10-28, 01:02:04,VALID,999.058,VALID,0,VALID,90.8077,VALID,0,VALID,24.2086,VALID,110,VALID,0.791797,
2011-10-28, 01:03:04,VALID,999.009,VALID,0,VALID,90.5941,VALID,0,VALID,24.1677,VALID,117,VALID,0.314844,
2011-10-28, 01:04:04,VALID,998.992,VALID,0,VALID,90.5636,VALID,0,VALID,24.1482,VALID,123,VALID,0.463281,
2011-10-28, 01:05:04,VALID,998.999,VALID,0,VALID,90.4034,VALID,0,VALID,24.1482,VALID,133,VALID,0.291797,
2011-10-28, 01:06:04,VALID,999.029,VALID,0,VALID,90.3652,VALID,0,VALID,24.15,VALID,133,VALID,0.00117188,
2011-10-28, 01:07:04,VALID,999.054,VALID,0,VALID,90.4034,VALID,0,VALID,24.15,VALID,133,VALID,0.465234,
2011-10-28, 01:08:04,VALID,999.123,VALID,0,VALID,90.4339,VALID,0,VALID,24.1092,VALID,133,VALID,0.521484,
2011-10-28, 01:09:04,VALID,999.131,VALID,0,VALID,90.5026,VALID,0,VALID,24.1305,VALID,129,VALID,0.899219,
2011-10-28, 01:10:04,VALID,999.128,VALID,0,VALID,90.472,VALID,0,VALID,24.1287,VALID,109,VALID,1.02344,
2011-10-28, 01:11:04,VALID,999.137,VALID,0,VALID,90.3881,VALID,0,VALID,24.15,VALID,109,VALID,1.31641,
2011-10-28, 01:12:04,VALID,999.157,VALID,0,VALID,90.3423,VALID,0,VALID,24.1891,VALID,102,VALID,1.18438,
2011-10-28, 01:13:04,VALID,999.149,VALID,0,VALID,90.5178,VALID,0,VALID,24.1891,VALID,95,VALID,1.29766,
2011-10-28, 01:14:04,VALID,999.142,VALID,0,VALID,90.6246,VALID,0,VALID,24.1677,VALID,92,VALID,1.1832,
2011-10-28, 01:15:04,VALID,999.161,VALID,0,VALID,90.5788,VALID,0,VALID,24.1696,VALID,92,VALID,1.01992,
2011-10-28, 01:16:04,VALID,999.187,VALID,0,VALID,90.4644,VALID,0,VALID,24.1696,VALID,92,VALID,0.93125,
2011-10-28, 01:17:04,VALID,999.18,VALID,0,VALID,90.6399,VALID,0,VALID,24.1696,VALID,80,VALID,0.894531,
2011-10-28, 01:18:04,VALID,999.208,VALID,0,VALID,90.7849,VALID,0,VALID,24.1696,VALID,80,VALID,0.788281,
2011-10-28, 01:19:04,VALID,999.185,VALID,0,VALID,90.9527,VALID,0,VALID,24.1696,VALID,80,VALID,0.536719,
2011-10-28, 01:20:04,VALID,999.166,VALID,0,VALID,91.0824,VALID,0,VALID,24.1287,VALID,80,VALID,0.486328,
2011-10-28, 01:21:04,VALID,999.135,VALID,0,VALID,91.2426,VALID,0,VALID,24.1305,VALID,80,VALID,0.421094,
2011-10-28, 01:22:04,VALID,999.12,VALID,0,VALID,91.3266,VALID,0,VALID,24.111,VALID,80,VALID,0.40625,
2011-10-28, 01:23:04,VALID,999.086,VALID,0,VALID,91.3266,VALID,0,VALID,24.111,VALID,80,VALID,0.285547,
2011-10-28, 01:24:04,VALID,999.1,VALID,0,VALID,91.235,VALID,0,VALID,24.0915,VALID,133,VALID,0.628125,
2011-10-28, 01:25:04,VALID,999.075,VALID,0,VALID,91.2579,VALID,0,VALID,24.0915,VALID,108,VALID,0.925391,
2011-10-28, 01:26:04,VALID,999.061,VALID,0,VALID,91.1816,VALID,0,VALID,24.1092,VALID,115,VALID,0.730078,
2011-10-28, 01:27:04,VALID,999.043,VALID,0,VALID,90.9985,VALID,0,VALID,24.111,VALID,115,VALID,0.639453,
2011-10-28, 01:28:04,VALID,999.051,VALID,0,VALID,91.0061,VALID,0,VALID,24.1092,VALID,115,VALID,0.503516,
2011-10-28, 01:29:04,VALID,999.084,VALID,0,VALID,91.0824,VALID,0,VALID,24.1092,VALID,115,VALID,0.699609,
2011-10-28, 01:30:04,VALID,999.08,VALID,0,VALID,91.2045,VALID,0,VALID,24.1092,VALID,115,VALID,0.923047,
2011-10-28, 01:31:04,VALID,999.079,VALID,0,VALID,91.4181,VALID,0,VALID,24.1092,VALID,142,VALID,0.894531,
2011-10-28, 01:32:04,VALID,999.052,VALID,0,VALID,91.5326,VALID,0,VALID,24.1287,VALID,130,VALID,1.1375,
2011-10-28, 01:33:04,VALID,999.045,VALID,0,VALID,91.6546,VALID,0,VALID,24.15,VALID,135,VALID,0.820313,
2011-10-28, 01:34:04,VALID,999.026,VALID,0,VALID,91.7538,VALID,0,VALID,24.1482,VALID,136,VALID,1.12305,
2011-10-28, 01:35:04,VALID,999.011,VALID,0,VALID,91.7843,VALID,0,VALID,24.15,VALID,119,VALID,1.2668,
2011-10-28, 01:36:04,VALID,998.96,VALID,0,VALID,91.8606,VALID,0,VALID,24.1287,VALID,123,VALID,1.0375,
2011-10-28, 01:37:04,VALID,998.946,VALID,0,VALID,91.8148,VALID,0,VALID,24.15,VALID,120,VALID,1.31758,
2011-10-28, 01:38:04,VALID,998.937,VALID,0,VALID,91.8454,VALID,0,VALID,24.1696,VALID,109,VALID,0.493359,
2011-10-28, 01:39:04,VALID,998.926,VALID,0,VALID,91.8988,VALID,0,VALID,24.1696,VALID,73,VALID,1.14297,
2011-10-28, 01:40:04,VALID,998.933,VALID,0,VALID,91.9369,VALID,0,VALID,24.1891,VALID,72,VALID,1.37891,
2011-10-28, 01:41:04,VALID,998.957,VALID,0,VALID,92.0132,VALID,0,VALID,24.2067,VALID,72,VALID,1.23398,
2011-10-28, 01:42:04,VALID,998.941,VALID,0,VALID,92.0437,VALID,0,VALID,24.2086,VALID,73,VALID,1.48516,
2011-10-28, 01:43:04,VALID,998.913,VALID,0.5,VALID,92.1429,VALID,0,VALID,24.1677,VALID,92,VALID,1.34219,
2011-10-28, 01:44:04,VALID,998.894,VALID,0.5,VALID,92.2574,VALID,0,VALID,24.1287,VALID,106,VALID,1.88242,
2011-10-28, 01:45:04,VALID,998.806,VALID,0.5,VALID,92.4252,VALID,0,VALID,24.072,VALID,148,VALID,1.76484,
2011-10-28, 01:46:04,VALID,998.782,VALID,0.5,VALID,92.5778,VALID,0,VALID,23.9939,VALID,134,VALID,2.09609,
2011-10-28, 01:47:04,VALID,998.791,VALID,0.5,VALID,92.7609,VALID,0,VALID,23.9549,VALID,120,VALID,2.04883,
2011-10-28, 01:48:04,VALID,998.831,VALID,0,VALID,92.8983,VALID,0,VALID,23.9159,VALID,145,VALID,1.73086,
2011-10-28, 01:49:04,VALID,998.847,VALID,0.5,VALID,93.0203,VALID,0,VALID,23.8378,VALID,127,VALID,2.41445,
2011-10-28, 01:50:04,VALID,998.807,VALID,0,VALID,93.1119,VALID,0,VALID,23.8183,VALID,128,VALID,2.22305,
2011-10-28, 01:51:04,VALID,998.797,VALID,0.5,VALID,93.2034,VALID,0,VALID,23.8183,VALID,123,VALID,1.85859,
2011-10-28, 01:52:04,VALID,998.733,VALID,0.5,VALID,93.3255,VALID,0,VALID,23.8378,VALID,120,VALID,1.73594,
2011-10-28, 01:53:04,VALID,998.695,VALID,0,VALID,93.3866,VALID,0,VALID,23.7988,VALID,124,VALID,2.3457,
2011-10-28, 01:54:04,VALID,998.662,VALID,0.5,VALID,93.4628,VALID,0,VALID,23.7988,VALID,121,VALID,1.52422,
2011-10-28, 01:55:04,VALID,998.596,VALID,0,VALID,93.5315,VALID,0,VALID,23.7793,VALID,130,VALID,1.39609,
2011-10-28, 01:56:04,VALID,998.572,VALID,0,VALID,93.5773,VALID,0,VALID,23.7793,VALID,119,VALID,1.27266,
2011-10-28, 01:57:04,VALID,998.555,VALID,0,VALID,93.6688,VALID,0,VALID,23.7793,VALID,120,VALID,1.59258,
2011-10-28, 01:58:04,VALID,998.549,VALID,0.5,VALID,93.6917,VALID,0,VALID,23.7988,VALID,119,VALID,1.48203,
2011-10-28, 01:59:04,VALID,998.565,VALID,0,VALID,93.7528,VALID,0,VALID,23.7793,VALID,118,VALID,1.48398,
2011-10-28, 02:00:04,VALID,998.61,VALID,0,VALID,93.7909,VALID,0,VALID,23.7793,VALID,111,VALID,1.38828,
2011-10-28, 02:01:04,VALID,998.669,VALID,0,VALID,93.8138,VALID,0,VALID,23.7597,VALID,93,VALID,1.39961,
2011-10-28, 02:02:04,VALID,998.707,VALID,0,VALID,93.8291,VALID,0,VALID,23.7793,VALID,77,VALID,1.20469,
2011-10-28, 02:03:04,VALID,998.763,VALID,0.5,VALID,93.8672,VALID,0,VALID,23.7793,VALID,67,VALID,1.84258,
2011-10-28, 02:04:04,VALID,998.763,VALID,0,VALID,93.8901,VALID,0,VALID,23.7793,VALID,71,VALID,1.825,
2011-10-28, 02:05:04,VALID,998.735,VALID,0,VALID,93.8977,VALID,0,VALID,23.7793,VALID,81,VALID,1.49063,
2011-10-28, 02:06:04,VALID,998.709,VALID,0,VALID,93.9511,VALID,0,VALID,23.7402,VALID,106,VALID,1.94844,
2011-10-28, 02:07:04,VALID,998.632,VALID,0,VALID,93.9435,VALID,0,VALID,23.6817,VALID,110,VALID,1.24336,
2011-10-28, 02:08:04,VALID,998.599,VALID,0,VALID,93.9664,VALID,0,VALID,23.6817,VALID,120,VALID,1.41602,
2011-10-28, 02:09:04,VALID,998.558,VALID,0,VALID,93.9588,VALID,0,VALID,23.6622,VALID,134,VALID,1.06914,
2011-10-28, 02:10:04,VALID,998.555,VALID,0,VALID,93.974,VALID,0,VALID,23.6427,VALID,128,VALID,1.50508,
2011-10-28, 02:11:04,VALID,998.54,VALID,0,VALID,93.9588,VALID,0,VALID,23.6622,VALID,143,VALID,1.1207,
2011-10-28, 02:12:04,VALID,998.572,VALID,0,VALID,93.9511,VALID,0,VALID,23.7597,VALID,159,VALID,0.764844,
2011-10-28, 02:13:04,VALID,998.58,VALID,0,VALID,93.974,VALID,0,VALID,23.7793,VALID,157,VALID,0.526953,
2011-10-28, 02:14:04,VALID,998.575,VALID,0,VALID,93.9817,VALID,0,VALID,23.7988,VALID,143,VALID,0.399609,
2011-10-28, 02:15:04,VALID,998.563,VALID,0,VALID,94.0198,VALID,0,VALID,23.7988,VALID,138,VALID,0.578516,
2011-10-28, 02:16:04,VALID,998.566,VALID,0,VALID,94.0503,VALID,0,VALID,23.7775,VALID,113,VALID,0.432813,
2011-10-28, 02:17:04,VALID,998.545,VALID,0,VALID,94.0351,VALID,0,VALID,23.7793,VALID,113,VALID,0.103125,
2011-10-28, 02:18:04,VALID,998.548,VALID,0,VALID,94.0351,VALID,0,VALID,23.7597,VALID,113,VALID,0.566797,
2011-10-28, 02:19:04,VALID,998.49,VALID,0,VALID,94.0808,VALID,0,VALID,23.7597,VALID,114,VALID,0.639453,
2011-10-28, 02:20:04,VALID,998.493,VALID,0,VALID,94.0503,VALID,0,VALID,23.7597,VALID,129,VALID,0.950781,
2011-10-28, 02:21:04,VALID,998.475,VALID,0,VALID,94.0656,VALID,0,VALID,23.7597,VALID,128,VALID,0.654688,
2011-10-28, 02:22:04,VALID,998.469,VALID,0,VALID,94.0885,VALID,0,VALID,23.7793,VALID,125,VALID,0.674219,
2011-10-28, 02:23:04,VALID,998.46,VALID,0,VALID,94.0808,VALID,0,VALID,23.7597,VALID,116,VALID,0.732422,
2011-10-28, 02:24:04,VALID,998.425,VALID,0,VALID,94.1114,VALID,0,VALID,23.7793,VALID,116,VALID,0.204297,
2011-10-28, 02:25:04,VALID,998.364,VALID,0,VALID,94.1037,VALID,0,VALID,23.7793,VALID,116,VALID,0,
2011-10-28, 02:26:04,VALID,998.33,VALID,0,VALID,94.1114,VALID,0,VALID,23.7793,VALID,116,VALID,0,
2011-10-28, 02:27:04,VALID,998.302,VALID,0,VALID,94.119,VALID,0,VALID,23.7988,VALID,116,VALID,0,
2011-10-28, 02:28:04,VALID,998.313,VALID,0,VALID,94.1266,VALID,0,VALID,23.7988,VALID,116,VALID,0,
2011-10-28, 02:29:04,VALID,998.338,VALID,0,VALID,94.1343,VALID,0,VALID,23.7793,VALID,116,VALID,0,
2011-10-28, 02:30:04,VALID,998.334,VALID,0,VALID,94.1343,VALID,0,VALID,23.7793,VALID,116,VALID,0.733984,
2011-10-28, 02:31:04,VALID,998.39,VALID,0,VALID,94.119,VALID,0,VALID,23.7793,VALID,116,VALID,0.696094,
2011-10-28, 02:32:04,VALID,998.414,VALID,0,VALID,94.1648,VALID,0,VALID,23.7793,VALID,116,VALID,0.504297,
2011-10-28, 02:33:04,VALID,998.462,VALID,0,VALID,94.1419,VALID,0,VALID,23.7988,VALID,116,VALID,0.513281,
2011-10-28, 02:34:04,VALID,998.51,VALID,0,VALID,94.1571,VALID,0,VALID,23.7988,VALID,71,VALID,0.776563,
2011-10-28, 02:35:04,VALID,998.531,VALID,0,VALID,94.1343,VALID,0,VALID,23.7988,VALID,55,VALID,0.932031,
2011-10-28, 02:36:04,VALID,998.546,VALID,0,VALID,94.1495,VALID,0,VALID,23.8183,VALID,55,VALID,1.18242,
2011-10-28, 02:37:04,VALID,998.616,VALID,0,VALID,94.1724,VALID,0,VALID,23.7988,VALID,52,VALID,1.25937,
2011-10-28, 02:38:04,VALID,998.624,VALID,0,VALID,94.18,VALID,0,VALID,23.7579,VALID,51,VALID,1.19023,
2011-10-28, 02:39:04,VALID,998.651,VALID,0,VALID,94.1953,VALID,0,VALID,23.7402,VALID,51,VALID,0.740625,
2011-10-28, 02:40:04,VALID,998.665,VALID,0,VALID,94.1953,VALID,0,VALID,23.7402,VALID,32,VALID,0.878516,
2011-10-28, 02:41:04,VALID,998.688,VALID,0,VALID,94.1724,VALID,0,VALID,23.7012,VALID,9,VALID,1.08477,
2011-10-28, 02:42:04,VALID,998.705,VALID,0,VALID,94.18,VALID,0,VALID,23.6622,VALID,2,VALID,1.53594,
2011-10-28, 02:43:04,VALID,998.707,VALID,0,VALID,94.2182,VALID,0,VALID,23.6622,VALID,356,VALID,1.40977,
2011-10-28, 02:44:04,VALID,998.731,VALID,0,VALID,94.1724,VALID,0,VALID,23.6622,VALID,346,VALID,1.59063,
2011-10-28, 02:45:04,VALID,998.692,VALID,0,VALID,94.1877,VALID,0,VALID,23.6409,VALID,1,VALID,1.3668,
2011-10-28, 02:46:04,VALID,998.682,VALID,0,VALID,94.18,VALID,0,VALID,23.6817,VALID,356,VALID,0.921875,
2011-10-28, 02:47:04,VALID,998.661,VALID,0,VALID,94.18,VALID,0,VALID,23.6427,VALID,20,VALID,1.38398,
2011-10-28, 02:48:04,VALID,998.734,VALID,0,VALID,94.1724,VALID,0,VALID,23.6232,VALID,24,VALID,0.808594,
2011-10-28, 02:49:04,VALID,998.715,VALID,0,VALID,94.1724,VALID,0,VALID,23.5823,VALID,47,VALID,1.13398,
2011-10-28, 02:50:04,VALID,998.753,VALID,0,VALID,94.1495,VALID,0,VALID,23.6036,VALID,48,VALID,1.69805,
2011-10-28, 02:51:04,VALID,998.758,VALID,0,VALID,94.1571,VALID,0,VALID,23.5823,VALID,54,VALID,1.52109,
2011-10-28, 02:52:04,VALID,998.803,VALID,0,VALID,94.1495,VALID,0,VALID,23.5841,VALID,68,VALID,1.86484,
2011-10-28, 02:53:04,VALID,998.833,VALID,0,VALID,94.1495,VALID,0,VALID,23.5841,VALID,72,VALID,2.07617,
2011-10-28, 02:54:04,VALID,998.838,VALID,0,VALID,94.1419,VALID,0,VALID,23.5841,VALID,73,VALID,2.73203,
2011-10-28, 02:55:04,VALID,998.819,VALID,0,VALID,94.1571,VALID,0,VALID,23.5451,VALID,58,VALID,2.9332,
2011-10-28, 02:56:04,VALID,998.849,VALID,0,VALID,94.1648,VALID,0,VALID,23.5256,VALID,52,VALID,2.56875,
2011-10-28, 02:57:04,VALID,998.816,VALID,0.5,VALID,94.1343,VALID,0,VALID,23.5043,VALID,55,VALID,3.35781,
2011-10-28, 02:58:04,VALID,998.794,VALID,0,VALID,94.1343,VALID,0,VALID,23.5256,VALID,44,VALID,2.27539,
2011-10-28, 02:59:04,VALID,998.741,VALID,0.5,VALID,94.1495,VALID,0,VALID,23.5061,VALID,38,VALID,2.57188,
2011-10-28, 03:00:04,VALID,998.671,VALID,0.5,VALID,94.1419,VALID,0,VALID,23.4848,VALID,14,VALID,2.23672,
2011-10-28, 03:01:04,VALID,998.631,VALID,1,VALID,94.1419,VALID,0,VALID,23.5274,VALID,349,VALID,2.18984,
2011-10-28, 03:02:04,VALID,998.6,VALID,0,VALID,94.1419,VALID,0,VALID,23.5061,VALID,341,VALID,1.62109,
2011-10-28, 03:03:04,VALID,998.623,VALID,0,VALID,94.1419,VALID,0,VALID,23.4671,VALID,338,VALID,1.93789,
2011-10-28, 03:04:04,VALID,998.667,VALID,0,VALID,94.1571,VALID,0,VALID,23.4475,VALID,343,VALID,1.49297,
2011-10-28, 03:05:04,VALID,998.656,VALID,0.5,VALID,94.1724,VALID,0,VALID,23.4475,VALID,335,VALID,0.882813,
2011-10-28, 03:06:04,VALID,998.682,VALID,0,VALID,94.1724,VALID,0,VALID,23.4475,VALID,349,VALID,0.810156,
2011-10-28, 03:07:04,VALID,998.71,VALID,0,VALID,94.1724,VALID,0,VALID,23.428,VALID,328,VALID,0.964063,
2011-10-28, 03:08:04,VALID,998.699,VALID,0,VALID,94.1953,VALID,0,VALID,23.4085,VALID,342,VALID,1.21211,
2011-10-28, 03:09:04,VALID,998.749,VALID,0,VALID,94.1877,VALID,0,VALID,23.3695,VALID,340,VALID,0.549609,
2011-10-28, 03:10:04,VALID,998.805,VALID,0,VALID,94.1953,VALID,0,VALID,23.35,VALID,49,VALID,0.840625,
2011-10-28, 03:11:04,VALID,998.809,VALID,0,VALID,94.2334,VALID,0,VALID,23.3305,VALID,62,VALID,1.27734,
2011-10-28, 03:12:04,VALID,998.809,VALID,0,VALID,94.2334,VALID,0,VALID,23.35,VALID,77,VALID,1.24414,
2011-10-28, 03:13:04,VALID,998.831,VALID,0,VALID,94.2182,VALID,0,VALID,23.3695,VALID,89,VALID,1.43906,
2011-10-28, 03:14:04,VALID,998.815,VALID,0.5,VALID,94.2258,VALID,0,VALID,23.3677,VALID,64,VALID,1.44648,
2011-10-28, 03:15:04,VALID,998.859,VALID,0,VALID,94.2258,VALID,0,VALID,23.3695,VALID,54,VALID,1.75625,
2011-10-28, 03:16:04,VALID,998.864,VALID,0,VALID,94.2411,VALID,0,VALID,23.3695,VALID,73,VALID,1.97695,
2011-10-28, 03:17:04,VALID,998.864,VALID,0,VALID,94.2563,VALID,0,VALID,23.3305,VALID,73,VALID,1.8332,
2011-10-28, 03:18:04,VALID,998.882,VALID,0,VALID,94.264,VALID,0,VALID,23.3305,VALID,86,VALID,1.2082,
2011-10-28, 03:19:04,VALID,998.862,VALID,0,VALID,94.2487,VALID,0,VALID,23.35,VALID,93,VALID,0.930859,
2011-10-28, 03:20:04,VALID,998.869,VALID,0.5,VALID,94.264,VALID,0,VALID,23.311,VALID,81,VALID,0.844141,
2011-10-28, 03:21:04,VALID,998.858,VALID,0,VALID,94.2792,VALID,0,VALID,23.2915,VALID,104,VALID,0.707031,
2011-10-28, 03:22:04,VALID,998.793,VALID,0,VALID,94.2792,VALID,0,VALID,23.2719,VALID,113,VALID,0.958594,
2011-10-28, 03:23:04,VALID,998.802,VALID,0.5,VALID,94.2945,VALID,0,VALID,23.2524,VALID,150,VALID,1.18633,
2011-10-28, 03:24:04,VALID,998.723,VALID,1,VALID,94.2792,VALID,0,VALID,23.2524,VALID,169,VALID,1.28086,
2011-10-28, 03:25:04,VALID,998.685,VALID,0,VALID,94.2716,VALID,0,VALID,23.2524,VALID,176,VALID,1.10508,
2011-10-28, 03:26:04,VALID,998.632,VALID,0,VALID,94.3021,VALID,0,VALID,23.2134,VALID,180,VALID,1.24805,
2011-10-28, 03:27:04,VALID,998.639,VALID,0.5,VALID,94.3097,VALID,0,VALID,23.2134,VALID,182,VALID,0.667578,
2011-10-28, 03:28:04,VALID,998.647,VALID,0,VALID,94.3174,VALID,0,VALID,23.2134,VALID,170,VALID,0.833594,
2011-10-28, 03:29:04,VALID,998.646,VALID,0,VALID,94.3021,VALID,0,VALID,23.1744,VALID,156,VALID,1.18828,
2011-10-28, 03:30:04,VALID,998.627,VALID,0,VALID,94.3174,VALID,0,VALID,23.1549,VALID,156,VALID,1.11133,
2011-10-28, 03:31:04,VALID,998.641,VALID,0,VALID,94.3174,VALID,0,VALID,23.1762,VALID,149,VALID,1.22617,
2011-10-28, 03:32:04,VALID,998.657,VALID,0,VALID,94.3326,VALID,0,VALID,23.1354,VALID,135,VALID,1.18047,
2011-10-28, 03:33:04,VALID,998.619,VALID,0,VALID,94.3326,VALID,0,VALID,23.1566,VALID,154,VALID,1.18047,
2011-10-28, 03:34:04,VALID,998.616,VALID,0,VALID,94.3326,VALID,0,VALID,23.1354,VALID,160,VALID,1.1332,
2011-10-28, 03:35:04,VALID,998.588,VALID,0,VALID,94.3097,VALID,0,VALID,23.1744,VALID,167,VALID,1.13828,
2011-10-28, 03:36:04,VALID,998.591,VALID,0,VALID,94.3174,VALID,0,VALID,23.1939,VALID,174,VALID,1.15195,
2011-10-28, 03:37:04,VALID,998.595,VALID,0,VALID,94.3403,VALID,0,VALID,23.1957,VALID,176,VALID,1.32461,
2011-10-28, 03:38:04,VALID,998.591,VALID,0,VALID,94.3021,VALID,0,VALID,23.1549,VALID,176,VALID,1.375,
2011-10-28, 03:39:04,VALID,998.566,VALID,0,VALID,94.3326,VALID,0,VALID,23.1744,VALID,187,VALID,1.01328,
2011-10-28, 03:40:04,VALID,998.573,VALID,0,VALID,94.3326,VALID,0,VALID,23.1939,VALID,187,VALID,0.672266,
2011-10-28, 03:41:04,VALID,998.562,VALID,0,VALID,94.325,VALID,0,VALID,23.1939,VALID,187,VALID,0.3125,
2011-10-28, 03:42:04,VALID,998.561,VALID,0,VALID,94.3326,VALID,0,VALID,23.1957,VALID,187,VALID,0.759766,
2011-10-28, 03:43:04,VALID,998.557,VALID,0,VALID,94.3403,VALID,0,VALID,23.1744,VALID,187,VALID,0.203516,
2011-10-28, 03:44:04,VALID,998.565,VALID,0,VALID,94.325,VALID,0,VALID,23.1939,VALID,187,VALID,0.274219,
2011-10-28, 03:45:04,VALID,998.576,VALID,0,VALID,94.3403,VALID,0,VALID,23.1957,VALID,187,VALID,0,
2011-10-28, 03:46:04,VALID,998.585,VALID,0,VALID,94.3479,VALID,0,VALID,23.1762,VALID,187,VALID,0.394141,